Location: Unspecified
(35.7250°N, 0.0000°E)
Time: 20:11:34
(UTC+00:00)

Courier 1B Rocket - Pass Details

Date: 15 August 2020
Orbit: 920 x 1202 km, 28.2° (Epoch: 01 October)

Event Time Altitude Azimuth Distance (km) Brightness Sun altitude
Exits shadow 01:45:00 14° 108° (ESE) 2,383 7.1 -34.9°
Drops below altitude 10° 01:45:51 10° 104° (ESE) 2,659 7.4 -34.8°
Sets 01:48:42 0° 97° (E) 3,637 8.3 -34.6°
